CAPE
0 64 55 0 0 0 0 13 13 132 378 369 390 666 543 607 669 819 987 1178 995 1104 958 704 679 1056 1803 1509 1471 1400 1428 1036 537 107 379 651 678 868 1008 1316 1223 1028 887 1190
0 0 0 0 0 4 42 54 5 55 34 347 400 256 501 459 870 697 1150 1059 823 949 751 591 871 1069 1185 1332 1175 1036 800 366 461 100 73 59 12 0 2 685 1096 1110 1063 864
0 0 0 17 8 26 5 2 17 0 143 315 425 269 506 626 738 694 766 960 778 870 676 723 583 572 887 978 1126 978 704 324 279 57 50 105 89 18 3 25 764 955 984 1147
112 153 38 6 14 32 4 35 11 33 104 157 368 549 620 649 667 791 954 780 643 356 166 285 174 123 112 379 257 144 109 240 289 2 40 85 30 8 10 130 541 622 891 971
44 144 75 16 56 0 0 8 0 342 488 338 169 251 419 428 524 783 914 666 527 439 350 453 338 94 0 0 0 0 3 21 71 16 1 1 1 17 0 90 605 392 606 753
23 0 22 55 69 13 0 0 12 11 334 447 184 166 243 369 522 1048 965 620 515 415 294 95 85 256 96 2 0 0 0 4 42 70 0 0 0 1 36 31 246 110 56 2
3 12 1 295 85 89 5 0 1 0 403 301 411 504 388 931 994 942 798 734 570 395 383 303 55 57 78 19 27 80 185 253 130 72 76 45 23 14 143 223 59 5 1 2
0 3 1 158 210 21 13 0 0 42 1167 1216 1206 1281 1625 1651 1653 1448 1198 1102 971 857 745 761 724 630 662 524 540 578 354 111 150 164 91 101 113 52 41 97 17 1 1 1
203 256 104 97 238 267 4 3 0 429 1560 1300 1357 1912 1616 1351 1294 978 841 945 870 808 708 459 65 389 734 479 596 292 7 0 2 0 0 28 15 0 9 15 6 1 0 0
2 356 6 0 368 73 54 41 12 1592 1517 1381 1521 1884 1612 1252 994 1029 798 865 658 482 171 24 0 165 323 168 234 0 0 0 1 0 0 0 0 2 0 1 0 0 0 0
0 94 0 239 0 0 0 5 102 166 1495 1432 1439 1348 1219 815 311 92 36 22 33 28 28 27 0 0 7 37 46 29 16 1 0 0 0 0 0 0 0 0 0 0 0 0
0 78 0 0 0 0 0 0 22 0 1461 1180 1185 917 615 278 113 141 76 37 2 0 0 0 0 0 0 34 6 1 29 74 16 0 0 0 0 0 1 1 1 0 0 0
3 21 0 0 0 1 3 15 8 981 1156 935 924 721 473 427 352 202 68 33 2 0 9 0 5 0 7 29 8 3 13 45 44 98 0 0 0 0 0 0 1 1 0 0
0 42 10 0 0 0 201 52 2 715 1174 1065 928 747 649 468 295 313 41 0 0 0 4 0 17 23 12 32 68 103 0 57 59 22 20 34 19 12 0 0 0 0 0 0
10 4 2 1 8 43 235 183 28 80 847 912 926 762 680 440 394 221 48 0 0 0 0 0 31 78 73 106 112 136 65 39 109 90 60 58 68 119 23 14 1 0 0 0
0 0 12 127 86 267 250 220 157 4 886 608 523 664 536 296 112 18 0 0 0 0 0 21 10 73 96 118 157 204 142 152 277 312 120 160 201 160 96 141 12 0 0 0
45 56 102 208 88 119 161 99 85 44 536 398 296 288 27 98 35 0 0 0 0 6 0 42 124 102 33 74 222 234 214 203 273 341 300 298 310 265 127 83 87 46 1 0
0 279 79 30 0 25 0 0 95 424 418 188 82 21 96 120 0 0 0 0 37 152 95 191 134 141 137 155 301 178 278 295 288 316 446 421 351 267 185 206 176 96 0 0
9 8 97 169 3 2 0 1 333 280 120 68 96 307 328 199 0 0 0 0 9 5 97 153 178 138 138 195 285 154 246 244 76 257 426 522 39 13 10 0 0 0 0 0
31 215 313 229 415 95 43 0 63 135 149 206 460 484 438 97 32 40 0 0 0 57 106 19 0 67 81 3 0 0 0 13 0 0 2 0 0 0 0 0 0 0 0 0
30 59 104 360 207 83 0 4 26 16 51 145 506 553 572 285 160 259 132 88 111 29 109 0 0 0 12 51 0 0 0 0 0 0 0 0 0 0 0 0 0 0 0 0
26 87 90 96 0 14 0 15 65 2 6 28 62 350 1057 656 548 488 293 174 433 278 0 0 9 0 0 25 0 0 0 0 0 0 0 0 0 0 0 0 0 0 0 0
59 277 142 246 63 80 22 42 22 0 0 4 4 2 371 1028 755 665 665 576 434 23 46 39 66 36 0 0 0 0 0 0 0 0 0 0 0 0 0 8 15 26 15 11
77 254 488 371 77 91 6 0 0 1 0 0 0 0 0 922 1056 861 750 962 368 6 93 80 47 3 0 0 0 0 0 0 30 0 0 0 7 10 25 57 11 0 4 5
122 15 855 475 43 65 35 9 4 4 0 0 0 0 0 157 1024 951 919 916 410 0 10 115 10 0 0 0 0 0 0 36 143 216 100 100 42 9 20 14 6 16 31 33
10 263 77 23 17 48 84 23 13 14 45 21 16 23 247 1204 1143 846 933 520 6 181 216 168 0 0 0 0 0 9 43 53 46 22 155 290 299 74 47 105 10 17 26 18
2 28 8 0 5 29 41 1 25 66 232 540 494 397 442 268 508 766 220 81 130 234 90 152 0 0 4 12 43 55 14 1 75 229 369 165 119 81 62 98 77 29 0 0
CIN
0 -56 -70 -6 0 0 0 -101 -74 -73 -102 -104 -61 -110 -136 -144 -136 -112 -106 -110 -122 -127 -147 -172 -190 -139 -64 -77 -59 -52 -45 -82 -104 -172 -158 -91 -107 -70 -59 -70 -68 -71 -80 -71
0 0 0 -1 0 -68 -133 -94 -33 -86 -49 -138 -113 -131 -132 -126 -112 -103 -47 -105 -139 -150 -146 -188 -151 -119 -75 -34 -68 -95 -107 -138 -122 -205 -224 -208 -190 -1 -65 -92 -59 -65 -45 -54
-2 0 -20 -56 -94 -121 -103 -56 -245 0 -75 -96 -70 -119 -131 -140 -62 -73 -56 -84 -166 -131 -156 -149 -173 -180 -90 -49 -39 -86 -109 -102 -128 -72 -111 -125 -141 -122 -208 -304 -36 -40 -47 -40
-41 -33 -20 -8 -99 -65 -191 -150 -132 -195 -102 -137 -130 -129 -149 -108 -77 -70 -71 -155 -193 -217 -266 -223 -261 -290 -290 -140 -176 -210 -188 -88 -116 -17 -202 -151 -81 -61 -89 -78 -37 -63 -38 -41
-46 -21 -18 -38 -69 0 -27 -202 -2 -3 -77 -84 -127 -120 -86 -127 -101 -97 -138 -204 -209 -214 -233 -178 -178 -268 0 0 -29 0 -35 -54 -104 -174 0 0 0 -192 0 -8 -41 -67 -54 -57
-81 0 -32 -48 -160 -100 0 0 -121 -88 -63 -65 -97 -120 -121 -143 -97 -112 -159 -240 -241 -216 -228 -285 -237 -138 -196 -13 0 0 0 -169 -118 -69 -11 0 0 0 -8 -7 -14 -53 -158 0
-33 -46 -24 -42 -98 -106 -33 0 -101 0 -95 -99 -95 -106 -154 -142 -133 -181 -181 -190 -196 -196 -181 -190 -247 -210 -181 -203 -149 -125 -89 -55 -99 -97 -81 -51 -42 -63 -5 -5 -40 -108 0 0
0 -49 -10 -84 -92 -17 -98 0 -22 -154 -119 -157 -150 -155 -137 -141 -124 -143 -140 -108 -115 -110 -106 -76 -51 -43 -24 -26 -19 -18 -47 -80 -59 -38 -49 -34 -20 -15 -25 -24 -43 0 0 0
-127 -74 -283 -366 -70 -174 -105 -215 0 -180 -30 -121 -144 -147 -171 -179 -150 -188 -143 -104 -87 -85 -85 -106 -214 -81 -38 -47 -16 -32 -10 0 -19 0 0 -74 -104 0 -130 -112 -165 -1 0 0
-9 -150 -541 0 -284 -373 -277 -233 -238 -61 -91 -108 -127 -112 -117 -136 -148 -130 -115 -84 -107 -126 -177 -193 0 -99 -51 -76 -51 -32 0 0 -3 -1 0 0 0 -148 -33 -94 0 0 0 -22
-7 -266 0 -231 0 0 0 -272 -272 -121 -66 -111 -115 -104 -117 -152 -208 -225 -240 -278 -262 -255 -224 -157 0 0 -159 -66 -63 -67 -38 -10 0 0 0 0 0 0 0 0 0 0 0 0
0 -281 0 0 0 0 0 0 -330 0 -57 -99 -134 -128 -141 -171 -204 -166 -185 -213 -53 0 -6 0 0 0 0 -62 -37 -30 -72 -31 -36 -5 0 0 0 0 0 0 0 0 0 0
-288 -298 0 0 0 -82 -11 -461 -369 -20 -91 -116 -119 -143 -152 -154 -132 -128 -163 -164 -139 0 -63 0 -40 0 -24 -16 -28 -33 -35 -44 -67 -42 0 0 0 0 0 0 0 0 0 0
0 -278 -339 0 0 0 -330 -369 -315 -74 -77 -88 -109 -114 -113 -117 -131 -97 -179 0 0 0 -40 0 -33 -31 -30 -70 -45 -38 0 -57 -85 -162 -163 -132 -112 -76 0 0 0 0 0 0
-44 -192 -134 -36 -133 -194 -244 -243 -414 -224 -73 -78 -69 -85 -100 -104 -79 -75 -121 0 0 0 0 -5 -38 -37 -48 -32 -36 -37 -82 -146 -71 -91 -173 -180 -140 -82 -116 -56 -67 0 0 0
0 0 -61 -144 -207 -186 -248 -179 -219 -37 -58 -127 -107 -118 -99 -107 -116 -82 0 0 0 0 0 -37 -39 -47 -39 -34 -21 -27 -52 -63 -48 -45 -104 -84 -68 -76 -108 -80 -102 0 0 0
-47 -37 -23 -23 -65 -81 -143 -246 -108 -89 -120 -142 -162 -173 -218 -124 -169 0 0 0 0 -56 -3 -63 -44 -41 -72 -45 -30 -47 -49 -82 -71 -45 -52 -53 -56 -66 -117 -147 -137 -149 -5 0
0 -36 -84 -147 -70 -29 0 0 -159 -109 -121 -186 -199 -227 -174 -146 0 0 0 0 -86 -70 -68 -44 -52 -40 -42 -49 -28 -58 -50 -69 -97 -95 -63 -53 -56 -72 -120 -101 -114 -121 0 0
-24 -64 -136 -125 -67 -42 0 -149 -89 -116 -193 -182 -166 -127 -105 -115 0 0 0 0 -100 -29 -100 -84 -58 -77 -80 -59 -35 -73 -54 -75 -193 -98 -60 -38 -137 -94 -105 0 0 0 0 0
-30 -25 -70 -183 -63 -175 -77 -1 -284 -184 -168 -164 -123 -102 -90 -130 -181 -149 0 0 0 -154 -131 -196 0 -156 -145 -169 0 0 0 -24 0 0 -36 0 0 0 0 0 0 0 0 0
-59 -69 -68 -29 -82 -117 -51 -474 -391 -255 -356 -279 -114 -109 -103 -120 -131 -98 -112 -118 -122 -222 -157 0 0 0 -275 -254 0 0 0 0 0 0 0 0 0 0 0 0 0 0 0 0
-78 -45 -29 -54 -21 -264 0 -342 -148 -63 -154 -328 -260 -178 -84 -98 -99 -99 -112 -102 -78 -87 0 0 -161 0 0 -332 0 0 0 0 0 0 0 0 0 0 0 0 0 0 0 0
-28 -14 -49 -47 -221 -240 -325 -361 -308 0 0 -47 -196 -47 -162 -87 -91 -89 -78 -78 -110 -147 -254 -269 -207 -233 0 0 0 0 0 0 0 0 0 0 0 0 0 -37 -45 -52 -85 -101
-79 -79 -32 -62 -228 -221 -270 0 0 -168 0 0 0 0 0 -58 -73 -87 -92 -54 -119 -100 -178 -170 -216 -71 0 0 0 0 0 0 -127 0 0 0 -46 -45 -41 -40 -48 -6 -72 -66
-117 -238 -52 -99 -230 -215 -262 -254 -301 -356 -15 0 0 0 0 -330 -33 -65 -69 -61 -129 0 -245 -101 -87 0 0 0 0 0 0 -155 -62 -55 -65 -44 -48 -53 -91 -172 -328 -283 -239 -253
-224 -83 -239 -351 -294 -292 -142 -88 -93 -174 -285 -140 -148 -271 -276 -92 -33 -50 -73 -138 -69 -235 -151 -124 0 0 0 0 0 -113 -76 -67 -72 -48 -77 -80 -153 -217 -237 -237 -270 -295 -335 -343
-69 -310 -387 0 -429 -452 -280 -81 -259 -25 -127 -71 -71 -167 -159 -258 -121 -51 -207 -366 -314 -260 -298 -193 0 0 -150 -169 -120 -93 -141 -112 -151 -129 -135 -181 -186 -204 -198 -215 -209 -213 0 0
Wind_Speed
7 6 4 4 8 13 7 15 1 10 12 12 11 16 13 13 11 10 9 8 8 7 5 6 7 6 4 4 3 6 8 7 5 6 5 5 3 7 10 9 10 9 7 7
6 7 8 6 1 9 11 12 17 10 6 12 10 11 13 13 13 10 9 10 8 8 6 4 6 7 5 1 3 5 4 6 8 11 6 3 4 6 6 7 7 7 7 7
7 7 4 2 11 11 7 6 3 9 7 9 9 14 16 14 12 11 10 10 10 8 6 5 3 5 7 6 4 4 4 5 9 9 6 3 2 7 10 12 8 7 7 6
3 5 9 6 9 12 10 10 11 18 9 17 14 11 13 14 11 11 14 14 11 9 7 6 4 5 6 6 6 6 6 6 4 7 6 6 3 8 12 18 9 7 6 8
2 4 4 4 5 3 6 7 15 17 13 13 12 9 9 13 10 10 14 12 10 8 9 8 7 6 6 6 6 6 7 5 3 5 7 8 5 4 14 21 7 5 2 4
1 3 5 7 6 12 7 3 11 14 12 14 13 8 6 13 13 15 15 14 12 9 7 9 6 5 5 5 6 5 6 5 4 6 7 8 10 8 10 13 4 7 7 7
10 7 8 3 10 7 9 8 3 8 7 10 6 6 7 17 16 16 15 14 12 9 7 8 7 6 5 4 3 3 4 4 3 4 4 4 5 7 8 3 7 9 8 6
7 9 9 7 5 9 8 5 7 9 8 14 12 13 18 17 16 15 12 11 9 8 7 6 5 4 2 3 4 6 8 9 6 5 4 4 4 4 3 5 7 4 6 4
5 3 11 14 7 1 14 9 6 13 5 14 14 16 15 15 14 14 11 8 8 8 7 6 6 5 7 4 6 7 7 6 5 5 4 5 5 5 4 5 4 3 3 3
8 3 18 18 17 14 6 8 2 19 17 16 14 15 14 12 10 9 9 7 6 9 8 7 7 7 6 6 6 7 7 6 4 4 5 5 5 3 4 4 3 3 3 3
5 7 11 1 16 18 18 16 4 1 20 18 16 13 15 12 9 8 8 7 7 8 8 8 7 6 6 6 6 6 6 5 5 4 6 6 6 4 4 4 2 2 3 3
6 5 6 12 16 21 15 13 16 14 16 16 18 15 15 12 10 9 9 8 8 8 9 8 7 7 5 6 6 4 2 4 4 4 4 4 4 4 11 8 7 7 2 6
6 3 8 7 13 13 11 14 16 20 19 18 15 15 15 15 10 13 11 9 9 8 8 8 7 6 6 6 6 5 2 3 2 4 5 5 4 4 4 4 7 9 8 6
11 2 6 10 5 12 11 19 21 8 17 17 16 14 13 14 11 11 11 9 9 9 8 7 7 7 6 6 5 5 5 4 4 4 4 4 4 5 5 5 3 2 4 4
10 13 13 4 5 4 7 12 14 13 13 14 15 14 12 13 10 9 9 10 9 11 8 8 8 7 6 7 6 5 5 4 3 3 4 4 3 3 5 4 5 4 3 1
11 13 13 9 8 6 8 7 11 12 6 10 10 14 11 10 9 10 9 9 9 9 8 8 8 7 7 7 6 4 4 7 5 4 4 4 4 4 4 4 5 4 4 4
7 7 7 4 5 7 13 12 16 28 11 12 14 15 12 9 10 9 8 8 7 10 8 8 8 7 7 6 7 5 4 5 6 3 4 4 4 4 4 4 4 5 5 6
9 7 6 7 7 11 5 21 26 16 14 15 14 14 12 11 10 9 8 7 7 8 8 8 8 8 8 7 6 5 5 5 5 5 4 3 4 4 5 5 5 5 4 4
11 8 6 8 10 15 19 11 12 17 17 16 14 12 11 10 10 8 8 8 7 8 6 8 10 9 8 7 7 4 5 5 6 5 4 5 4 4 3 5 7 6 6 5
8 8 9 2 5 5 7 7 20 13 13 16 14 13 11 10 9 8 8 7 7 5 8 9 8 6 6 4 3 2 2 6 5 6 6 5 3 4 1 5 5 6 5 6
10 10 11 15 13 18 13 19 12 9 12 9 9 14 12 11 9 8 8 5 8 8 9 13 7 6 4 5 4 2 4 4 4 6 6 5 4 2 4 3 4 5 8 6
8 8 5 7 9 6 15 18 12 6 8 7 4 7 9 9 8 6 6 7 5 12 8 7 6 9 7 9 5 4 5 5 4 5 5 5 5 5 4 4 5 5 5 6
5 1 1 3 10 9 11 12 15 13 11 8 8 4 2 10 10 8 7 9 5 10 7 7 8 11 10 6 6 5 5 6 4 5 5 6 6 6 5 5 5 3 4 5
2 4 1 11 16 14 14 13 13 12 11 13 17 8 4 4 7 8 8 10 13 13 10 10 11 15 11 5 4 5 5 4 3 5 5 6 4 3 2 1 2 3 2 3
3 5 4 13 10 8 13 12 9 6 7 9 5 6 7 9 9 10 9 10 15 15 7 12 17 16 7 5 5 4 4 4 3 3 3 3 4 4 0 5 6 4 6 7
2 1 4 6 1 6 4 10 11 10 8 7 7 9 10 10 10 6 5 7 12 15 1 4 5 8 8 6 5 5 5 5 5 4 5 2 5 5 4 4 4 4 4 2
9 8 8 9 9 8 7 6 9 4 3 6 4 6 7 8 7 6 9 10 12 13 10 9 6 4 3 7 5 3 5 3 3 4 6 4 2 2 3 3 1 3 3 3
Wind_Direction
288 137 165 229 274 277 344 303 231 214 166 185 167 147 145 140 144 135 135 116 109 100 76 25 347 341 313 306 23 192 207 175 132 298 291 210 213 208 208 194 204 194 189 194
281 285 210 194 291 310 309 313 350 190 207 178 180 134 141 151 142 149 140 138 130 106 91 70 1 339 341 347 57 130 135 175 191 234 177 83 340 316 315 279 212 196 195 197
250 268 284 355 188 203 228 298 187 290 193 130 148 153 157 153 149 154 145 143 124 119 110 96 48 9 22 16 40 32 76 112 165 167 137 142 269 319 315 288 236 201 197 196
205 325 269 234 174 169 206 284 326 300 211 161 166 161 148 152 149 151 138 135 131 126 121 114 94 60 49 49 58 68 53 80 112 130 138 164 254 295 301 283 243 216 201 205
188 235 276 4 178 121 132 255 268 186 171 149 141 105 151 151 147 144 150 144 139 140 135 125 118 112 83 69 64 57 67 88 115 120 129 147 114 34 287 276 245 227 202 203
281 180 241 191 164 136 138 220 297 326 166 146 133 130 210 155 147 133 135 136 133 127 118 113 120 119 107 103 100 92 95 98 98 153 169 166 147 169 253 250 150 118 93 81
256 243 245 175 139 147 147 225 306 312 163 133 101 174 146 108 114 119 126 127 133 140 152 155 161 155 154 171 169 162 125 119 96 77 91 127 182 168 213 133 74 78 83 83
229 246 262 163 140 156 189 180 79 359 84 105 113 97 110 115 116 117 121 125 114 114 114 116 112 112 139 115 93 79 78 67 55 66 55 70 114 84 27 94 101 89 94 87
28 324 329 333 217 161 152 168 144 136 201 119 122 120 118 123 126 129 134 130 131 130 123 110 92 63 98 82 85 91 84 64 56 68 68 51 66 80 78 88 71 88 93 99
348 308 331 337 1 14 345 146 147 143 143 139 131 132 129 132 134 132 146 143 136 132 126 117 99 76 99 101 84 81 94 102 81 70 57 43 60 54 69 58 96 111 122 117
249 264 313 174 353 348 336 327 57 321 148 143 136 128 132 130 126 120 112 114 121 121 117 119 105 89 91 96 105 107 130 133 134 117 97 77 55 26 69 71 20 69 82 98
243 188 176 272 315 323 326 329 312 232 154 143 134 135 131 131 130 120 114 107 103 109 117 123 124 127 106 112 111 127 149 142 156 128 114 116 113 85 51 54 23 26 79 111
237 186 223 237 251 285 335 329 311 181 145 143 139 137 137 135 137 133 130 129 135 141 134 133 144 145 135 136 136 142 160 100 148 154 142 147 144 133 117 49 54 48 58 91
245 302 315 234 231 305 345 327 314 208 134 133 133 135 135 134 136 135 144 157 133 130 132 144 140 141 152 138 138 130 112 94 95 104 126 129 156 160 151 155 158 142 35 108
204 217 242 255 320 273 336 329 288 343 119 129 133 135 130 135 134 142 132 127 122 130 129 132 132 153 156 146 153 161 148 154 155 153 154 172 195 201 158 152 134 132 130 143
251 228 222 212 241 268 309 287 266 270 160 110 113 128 128 122 123 116 123 125 124 144 149 138 142 158 155 153 164 173 144 173 198 180 174 186 187 164 156 166 152 162 178 180
246 218 219 233 74 154 239 250 214 231 145 134 132 131 130 125 118 120 128 134 141 147 149 150 161 159 162 174 173 178 173 186 205 193 175 203 183 195 184 185 176 177 193 174
254 223 170 133 148 121 280 261 246 142 146 137 129 129 129 131 141 140 142 144 130 130 157 158 151 170 173 181 183 195 182 180 183 209 220 195 197 200 198 197 178 177 174 182
240 206 224 136 164 174 204 286 183 138 135 134 128 132 132 135 139 143 140 141 146 148 176 150 167 163 183 198 176 181 201 217 199 193 207 205 230 178 206 195 157 172 165 169
214 242 240 329 130 181 205 53 30 112 141 133 132 130 128 138 141 142 140 155 171 176 161 155 158 163 181 185 230 200 173 234 180 160 158 178 190 234 261 151 129 162 167 180
204 239 246 175 175 178 102 62 26 15 21 23 131 146 148 153 145 145 144 162 206 184 159 161 165 172 189 179 208 230 276 296 168 157 162 180 172 254 228 213 214 177 185 192
218 235 261 111 157 111 117 139 130 42 359 347 354 37 139 153 149 158 176 181 186 162 152 171 172 184 185 178 190 214 226 262 257 176 173 178 191 210 237 231 200 215 219 202
202 225 101 59 133 134 142 154 168 169 173 146 258 155 246 175 168 167 192 211 163 166 156 170 192 192 185 171 184 205 227 239 242 211 180 178 191 197 207 219 236 193 196 231
62 353 181 104 135 132 151 164 168 180 186 191 213 194 181 223 186 188 189 189 173 178 173 180 192 186 168 184 194 209 222 249 282 226 174 149 140 133 99 28 296 291 288 212
66 351 262 125 146 162 145 162 170 174 202 212 204 238 231 259 213 202 199 192 182 174 192 186 181 182 184 181 190 214 238 237 236 219 179 168 194 205 171 64 76 55 34 38
272 229 54 50 155 129 148 174 188 192 191 210 224 229 240 233 221 212 183 156 130 116 226 297 218 183 185 182 186 199 225 246 251 230 215 157 100 116 134 116 98 92 94 353
85 66 55 19 337 7 27 47 28 22 156 170 175 13 16 358 310 244 152 154 168 170 185 214 175 144 62 30 352 36 90 72 66 94 104 90 77 165 200 180 179 152 198 228